Waarnemingen

Advertentie
Mijn weer
Schaffen, België (6465): temperatuur & dauwpunt: 04.07.2020 14:00:00 - 10.07.2020 14:00:00 (CEST)Schaffen, België (6465): windsnelheid & windstoten: 04.07.2020 14:00:00 - 10.07.2020 14:00:00 (CEST)Schaffen, België (6465): windrichting: 04.07.2020 14:00:00 - 10.07.2020 14:00:00 (CEST)Schaffen, België (6465): luchtdruk: 04.07.2020 14:00:00 - 10.07.2020 14:00:00 (CEST)Schaffen, België (6465): zicht: 04.07.2020 14:00:00 - 10.07.2020 14:00:00 (CEST)
Datum & Tijd tt [°C] td [°C] ff [km/u] ff [kn] fx [km/u] fx [kn] dd ppp [hPa] vv [km]
10.07.2020 14:00:00 - - - - - - - - -
10.07.2020 13:00:00 18,7 13,1 18 10 29 16 NW 1014,1 20
10.07.2020 12:00:00 17,6 13,3 14 8 29 16 WNW 1013,2 20
10.07.2020 11:00:00 16,8 14,2 14 8 - - NW 1012,2 20
10.07.2020 10:00:00 16,5 15,3 16 9 32 18 W 1011,0 8
10.07.2020 09:00:00 16,3 15,2 18 10 32 18 WZW 1010,0 2,2
10.07.2020 08:00:00 16,8 14,4 14 8 - - WZW 1009,5 20
10.07.2020 07:00:00 16,5 14,2 11 6 29 16 WZW 1009,3 12
10.07.2020 06:00:00 17,0 14,0 14 8 29 16 WZW 1009,2 20
10.07.2020 05:00:00 17,2 14,0 11 6 - - WZW 1009,2 20
10.07.2020 04:00:00 17,6 14,0 11 6 25 14 WZW 1009,7 15
10.07.2020 03:00:00 18,0 14,3 7 4 18 10 ZW 1010,0 20
10.07.2020 02:00:00 18,2 14,8 7 4 - - ZZW 1010,5 20
10.07.2020 01:00:00 17,3 15,4 4 2 18 10 N 1011,0 20
10.07.2020 00:00:00 18,0 15,4 4 2 7 4 N 1011,1 20
09.07.2020 23:00:00 18,7 14,9 4 2 - - N 1011,3 20
09.07.2020 22:00:00 19,0 15,2 11 6 14 8 NW 1011,7 20
09.07.2020 21:00:00 20,7 15,2 7 4 18 10 NW 1011,3 20
09.07.2020 20:00:00 22,2 15,3 11 6 - - NW 1011,7 20
09.07.2020 19:00:00 22,6 15,5 7 4 18 10 W 1012,0 20
09.07.2020 18:00:00 21,8 15,4 11 6 22 12 W 1012,6 20
09.07.2020 17:00:00 21,4 14,5 14 8 - - WZW 1013,1 20
09.07.2020 16:00:00 21,9 14,6 18 10 32 18 WZW 1013,3 20
09.07.2020 15:00:00 21,0 14,2 14 8 36 19 WZW 1013,6 20
09.07.2020 14:00:00 20,8 14,0 18 10 - - WZW 1013,7 16
09.07.2020 13:00:00 20,2 14,5 18 10 36 19 WZW 1013,8 16
09.07.2020 12:00:00 19,4 15,0 18 10 32 18 ZW 1014,0 10
09.07.2020 11:00:00 18,2 15,3 18 10 - - ZW 1013,8 16
09.07.2020 10:00:00 17,5 15,5 14 8 29 16 ZW 1014,1 16
09.07.2020 09:00:00 17,1 15,5 14 8 25 14 WZW 1014,2 14
09.07.2020 08:00:00 16,8 15,8 11 6 - - ZW 1014,0 20
09.07.2020 07:00:00 16,4 15,8 9 5 18 10 ZZW 1014,2 10
09.07.2020 06:00:00 16,2 15,6 7 4 18 10 ZW 1014,6 9
09.07.2020 05:00:00 16,2 15,6 11 6 - - ZW 1014,7 9
09.07.2020 04:00:00 16,3 15,7 8 4 14 8 ZW 1014,6 7
09.07.2020 03:00:00 16,2 15,7 8 4 14 8 ZW 1014,8 8
09.07.2020 02:00:00 16,2 15,8 4 2 - - N 1015,2 8
09.07.2020 01:00:00 16,2 15,9 7 4 14 8 WZW 1015,6 5
09.07.2020 00:00:00 16,2 16,0 4 2 11 6 N 1015,7 10
08.07.2020 23:00:00 16,2 16,0 7 4 - - W 1016,1 18
08.07.2020 22:00:00 16,1 15,9 4 2 7 4 N 1015,8 4,8
08.07.2020 21:00:00 16,1 15,6 4 2 7 4 - 1016,1 10
08.07.2020 20:00:00 16,0 15,6 4 2 - - N 1016,1 2,1
08.07.2020 19:00:00 16,0 15,4 5 3 14 8 W 1016,0 3,6
08.07.2020 18:00:00 16,6 15,8 9 5 18 10 WNW 1016,0 4,8
08.07.2020 17:00:00 17,2 15,8 7 4 - - ZW 1016,2 4,9
08.07.2020 16:00:00 17,1 15,5 7 4 18 10 ZW 1016,0 15
08.07.2020 15:00:00 16,5 14,9 7 4 22 12 ZW 1016,1 12
08.07.2020 14:00:00 15,7 14,4 7 4 - - ZW 1016,0 20
08.07.2020 13:00:00 14,9 14,1 7 4 18 10 ZZW 1016,0 11
08.07.2020 12:00:00 14,5 13,9 7 4 18 10 Z 1016,0 5
08.07.2020 11:00:00 13,8 13,3 11 6 - - Z 1015,8 13
08.07.2020 10:00:00 13,3 12,8 7 4 14 8 Z 1016,1 2,8
08.07.2020 09:00:00 12,6 12,3 11 6 18 10 Z 1015,8 10
08.07.2020 08:00:00 12,1 11,7 11 6 - - Z 1015,8 4,7
08.07.2020 07:00:00 12,2 11,5 7 4 11 6 ZZW 1016,1 6
08.07.2020 06:00:00 12,6 11,2 4 2 11 6 N 1016,2 15
08.07.2020 05:00:00 12,6 10,3 7 4 - - N 1016,3 20
08.07.2020 04:00:00 13,6 9,8 7 4 14 8 WZW 1016,6 12
08.07.2020 03:00:00 14,2 10,7 7 4 14 8 WZW 1017,0 12
08.07.2020 02:00:00 14,4 11,2 7 4 - - WZW 1017,2 12
08.07.2020 01:00:00 15,1 10,3 7 4 11 6 N 1017,1 12
08.07.2020 00:00:00 15,4 10,8 7 4 18 10 NNW 1017,6 20
07.07.2020 23:00:00 16,6 10,6 4 2 - - N 1017,6 20
07.07.2020 22:00:00 17,2 10,3 4 2 7 4 N 1017,5 20
07.07.2020 21:00:00 17,7 10,7 4 2 7 4 N 1017,8 20
07.07.2020 20:00:00 18,6 9,8 4 2 - - N 1018,2 20
07.07.2020 19:00:00 19,0 9,0 7 4 22 12 NNW 1018,3 20
07.07.2020 18:00:00 19,6 8,4 11 6 29 16 W 1018,8 20
07.07.2020 17:00:00 20,1 9,1 11 6 - - NW 1019,2 20
07.07.2020 16:00:00 19,2 9,0 14 8 29 16 WNW 1019,7 20
07.07.2020 15:00:00 19,7 9,1 14 8 25 14 WNW 1020,0 20
07.07.2020 14:00:00 18,3 8,8 11 6 - - W 1020,2 20
07.07.2020 13:00:00 18,6 8,3 18 10 29 16 W 1020,5 20
07.07.2020 12:00:00 18,7 9,4 14 8 25 14 W 1020,7 20
07.07.2020 11:00:00 18,8 11,2 7 4 - - WZW 1020,8 20
07.07.2020 10:00:00 16,7 10,9 14 8 22 12 WZW 1021,1 20
07.07.2020 09:00:00 15,0 10,5 11 6 18 10 Z 1021,0 20
07.07.2020 08:00:00 13,1 10,4 7 4 - - Z 1021,2 20
07.07.2020 07:00:00 12,7 10,5 7 4 11 6 Z 1021,5 20
07.07.2020 06:00:00 11,8 10,8 7 4 7 4 Z 1021,3 20
07.07.2020 05:00:00 11,6 10,7 4 2 - - N 1021,7 19
07.07.2020 04:00:00 12,6 10,5 4 2 7 4 N 1021,8 20
07.07.2020 03:00:00 12,5 10,2 4 2 7 4 N 1022,2 20
07.07.2020 02:00:00 13,2 9,8 4 2 - - N 1022,3 20
07.07.2020 01:00:00 13,1 9,4 7 4 14 8 NW 1022,5 20
07.07.2020 00:00:00 14,0 9,2 7 4 14 8 W 1022,5 20
06.07.2020 23:00:00 14,2 9,1 7 4 - - W 1022,2 20
06.07.2020 22:00:00 15,4 9,1 7 4 11 6 WNW 1021,8 20
06.07.2020 21:00:00 15,5 8,4 7 4 22 12 NW 1021,3 20
06.07.2020 20:00:00 16,7 8,0 14 8 - - NW 1020,8 20
06.07.2020 19:00:00 18,0 7,5 22 12 36 19 WNW 1020,2 20
06.07.2020 18:00:00 17,7 7,0 22 12 40 21 WNW 1019,7 20
06.07.2020 17:00:00 18,4 7,6 22 12 - - WNW 1019,3 19
06.07.2020 16:00:00 18,0 8,0 22 12 40 21 WNW 1018,7 20
06.07.2020 15:00:00 17,9 9,1 22 12 32 18 W 1018,2 20
06.07.2020 14:00:00 17,0 11,1 18 10 - - W 1017,8 20
06.07.2020 13:00:00 16,7 8,5 18 10 43 23 WNW 1017,5 20
06.07.2020 12:00:00 16,0 10,0 18 10 40 21 W 1017,0 20
06.07.2020 11:00:00 16,4 9,0 22 12 - - W 1016,2 20
06.07.2020 10:00:00 15,2 9,1 22 12 36 19 W 1016,2 19
06.07.2020 09:00:00 15,1 9,5 22 12 40 21 WZW 1015,6 20
06.07.2020 08:00:00 13,7 8,8 14 8 - - WZW 1015,1 17
06.07.2020 07:00:00 12,1 9,8 11 6 18 10 ZW 1014,6 16
06.07.2020 06:00:00 11,6 9,6 11 6 22 12 ZW 1014,5 15
06.07.2020 05:00:00 11,6 9,6 7 4 - - ZW 1014,1 15
06.07.2020 04:00:00 12,3 9,7 11 6 22 12 ZW 1014,0 17
06.07.2020 03:00:00 13,0 9,5 14 8 29 16 WZW 1014,1 18
06.07.2020 02:00:00 13,4 9,0 14 8 - - WZW 1014,0 19
06.07.2020 01:00:00 14,1 8,4 18 10 40 21 WZW 1013,7 20
06.07.2020 00:00:00 15,1 7,9 22 12 40 21 WZW 1013,5 20
05.07.2020 23:00:00 16,0 8,2 25 14 - - WZW 1013,2 20
05.07.2020 22:00:00 17,3 10,2 25 14 54 29 WZW 1012,7 20
05.07.2020 21:00:00 18,8 11,2 25 14 54 29 WZW 1012,1 20
05.07.2020 20:00:00 21,1 12,9 29 16 - - WZW 1011,7 20
05.07.2020 19:00:00 22,1 13,3 29 16 50 27 WZW 1011,7 20
05.07.2020 18:00:00 22,8 13,8 29 16 58 31 WZW 1011,8 20
05.07.2020 17:00:00 22,4 14,8 29 16 - - WZW 1012,1 20
05.07.2020 16:00:00 21,5 16,2 25 14 50 27 ZW 1012,3 20
05.07.2020 15:00:00 19,9 16,8 22 12 43 23 ZW 1012,5 20
05.07.2020 14:00:00 19,5 17,7 25 14 - - ZW 1012,6 6
05.07.2020 13:00:00 19,0 17,2 14 8 36 19 ZW 1012,5 18
05.07.2020 12:00:00 19,1 16,9 14 8 43 23 ZW 1012,5 20
05.07.2020 11:00:00 20,0 16,1 18 10 - - ZW 1012,2 8
05.07.2020 10:00:00 19,8 15,5 22 12 43 23 ZW 1012,3 20
05.07.2020 09:00:00 19,3 16,0 18 10 40 21 ZW 1012,3 20
05.07.2020 08:00:00 18,6 15,9 24 13 - - ZW 1012,2 10
05.07.2020 07:00:00 18,6 15,4 18 10 47 25 ZW 1012,2 20
05.07.2020 06:00:00 18,1 15,5 22 12 47 25 WZW 1012,2 20
05.07.2020 05:00:00 18,2 16,1 18 10 - - WZW 1012,2 20
05.07.2020 04:00:00 18,3 16,1 22 12 47 25 ZW 1012,3 20
05.07.2020 03:00:00 18,0 16,9 18 10 32 18 WZW 1012,8 12
05.07.2020 02:00:00 18,7 16,9 18 10 - - ZW 1013,2 8
05.07.2020 01:00:00 19,6 16,4 14 8 32 18 ZZW 1013,0 20
05.07.2020 00:00:00 19,2 16,6 14 8 36 19 ZZW 1013,3 20
04.07.2020 23:00:00 18,6 17,0 14 8 - - ZZW 1013,5 20
04.07.2020 22:00:00 19,2 16,6 18 10 32 18 ZZW 1013,7 20
04.07.2020 21:00:00 20,3 15,8 18 10 32 18 ZZW 1013,7 20
04.07.2020 20:00:00 20,2 15,6 14 8 - - ZZW 1013,8 20
04.07.2020 19:00:00 20,1 15,4 18 10 40 21 ZZW 1014,2 20
04.07.2020 18:00:00 20,1 15,0 22 12 40 21 ZW 1014,6 10
04.07.2020 17:00:00 20,5 14,9 14 8 - - ZZW 1014,6 20
04.07.2020 16:00:00 20,0 14,6 18 10 47 25 ZW 1014,8 20
04.07.2020 15:00:00 19,8 14,1 22 12 36 19 ZZW 1015,0 20
04.07.2020 14:00:00 18,5 14,4 18 10 - - ZZW 1015,2 20

tt = temperatuur
td = dauwpunt
ff = windsnelheid
fx = windstoten
dd = windrichting
ppp = luchtdruk
vv = zicht

Weerstations in de omgeving